Probability
1 2 2 2 1 0 0 0 0 0 0 0 0 0 0 0 0 0 0 0 0 0 0 0 0 0 0 0 0 0 0 0 0 0 0 0 0 0 0 0 0 0 0
2 3 2 1 0 0 0 0 0 0 0 0 0 0 0 0 0 0 0 0 0 0 0 0 0 0 0 0 0 0 0 0 0 0 0 0 0 0 0 0 0 0 0
3 3 2 1 0 0 0 0 0 0 0 0 0 0 0 0 0 0 0 0 0 0 0 0 0 0 0 0 0 0 0 0 0 0 0 0 0 0 0 0 0 0 0
3 3 2 0 0 0 0 0 0 0 0 0 0 1 1 1 0 0 0 0 0 0 0 0 0 0 0 0 0 0 0 0 0 0 0 0 0 0 0 0 0 0 0
2 3 2 1 0 0 0 0 1 0 0 0 0 1 2 2 1 0 1 1 0 0 0 0 1 1 1 0 0 0 0 0 0 0 0 0 0 0 0 0 0 0 0
3 3 2 1 0 0 0 0 0 0 0 0 0 0 1 2 1 1 2 2 1 0 0 1 2 2 1 0 0 0 0 0 0 0 0 0 0 0 0 0 0 0 0
4 3 1 0 0 0 0 0 0 0 0 0 0 0 0 1 1 1 2 2 1 0 1 2 3 3 1 0 0 0 0 0 0 0 0 0 0 0 0 0 0 0 0
3 2 1 0 0 0 0 0 0 0 0 0 0 0 0 0 0 0 1 1 0 0 1 2 2 2 1 0 0 0 0 0 0 0 0 0 0 0 0 0 0 0 0
3 1 0 0 0 0 0 0 0 0 0 0 0 0 0 0 0 0 0 0 0 0 1 1 1 1 0 0 0 0 0 0 0 0 0 0 0 0 0 0 0 0 0
4 1 0 0 0 0 0 0 0 0 0 0 0 0 0 0 0 0 0 0 0 0 0 0 0 0 0 0 0 0 0 0 0 0 0 0 0 0 0 0 0 0 0
4 2 0 0 0 0 0 0 0 0 0 0 0 0 0 0 0 0 0 0 0 0 0 0 0 0 0 0 0 0 0 0 0 0 0 0 0 0 0 0 0 0 0
5 2 0 0 0 0 0 0 0 0 0 0 0 0 0 0 0 0 0 0 0 0 0 0 0 0 0 0 0 0 0 0 0 0 0 0 0 0 0 0 0 0 0
5 3 1 0 0 0 0 0 0 0 0 0 0 0 0 0 0 0 0 0 0 0 0 0 0 0 0 0 0 0 0 0 0 0 0 0 0 0 0 0 0 0 0
4 3 1 0 0 0 0 0 1 1 0 0 0 0 0 0 0 0 0 0 0 0 0 0 0 0 0 0 0 0 0 0 0 0 0 0 0 0 0 0 0 0 0
3 3 1 1 0 0 0 0 1 1 0 0 0 0 0 0 0 0 0 0 0 0 0 0 0 0 0 0 0 0 0 0 0 0 0 0 0 0 0 1 0 0 0
3 3 3 2 1 0 0 0 0 0 0 0 0 0 0 0 0 0 0 0 0 0 0 0 0 0 0 0 0 0 0 0 0 0 0 0 0 0 0 0 0 0 0
1 2 3 3 2 1 1 1 0 0 0 0 0 0 0 0 0 0 0 0 0 0 0 0 0 0 0 0 0 0 0 0 0 0 0 0 0 0 0 0 0 0 0
0 1 2 3 2 2 2 2 1 0 0 0 0 0 0 0 0 0 0 0 0 0 0 0 0 0 0 0 0 0 0 0 0 0 0 0 0 0 0 0 0 0 0
0 0 1 2 3 3 3 3 2 0 0 0 0 0 0 0 0 0 0 0 0 0 0 0 0 0 0 0 0 0 0 0 0 0 0 0 0 0 0 0 0 0 0
0 0 1 1 2 3 3 3 1 0 0 1 1 0 0 0 0 0 0 0 0 0 0 0 0 0 0 0 0 0 0 0 0 0 0 0 0 0 0 0 0 0 0
1 1 2 2 2 3 3 3 1 0 0 1 1 0 0 0 0 0 0 0 0 0 0 0 0 0 0 0 0 0 0 0 0 0 0 0 0 0 0 0 0 0 0
1 2 3 3 3 4 4 4 2 1 0 0 0 0 0 0 0 0 0 0 0 0 0 0 0 0 0 0 0 0 0 0 0 0 0 0 0 0 0 0 0 0 0
0 1 2 3 3 4 5 5 4 2 1 1 1 0 0 0 0 0 0 0 0 0 0 0 0 0 0 0 0 0 0 0 0 0 0 0 0 0 0 0 0 0 0
0 0 1 2 3 4 5 6 5 4 3 3 2 1 0 0 0 0 0 0 0 0 0 0 0 0 0 0 0 0 0 0 0 0 0 0 0 0 0 0 0 0 0
0 0 0 1 3 4 4 4 5 6 5 4 3 1 0 0 0 0 0 0 0 0 0 0 0 0 0 0 0 0 0 0 0 0 0 0 0 0 0 0 0 0 0
0 0 0 1 3 4 4 4 5 6 6 5 3 1 0 0 0 0 0 0 0 0 0 0 0 0 0 0 0 0 0 0 0 0 0 0 0 0 0 0 0 0 0
Wind_Speed
4 4 4 6 7 8 8 9 9 10 10 11 11 11 11 11 11 12 12 12 12 12 12 13 13 13 13 13 12 12 11 10 10 10 10 10 11 12 12 11 9 7 12
5 4 4 6 7 8 8 8 9 9 9 10 10 10 11 11 11 11 11 11 11 12 12 12 13 13 13 13 12 11 10 9 8 7 7 8 10 11 11 11 10 7 10
6 5 4 6 7 8 8 8 9 9 9 9 9 10 10 10 11 11 11 11 11 11 12 12 12 12 12 12 11 10 8 7 7 6 4 3 6 10 10 9 9 9 9
6 5 5 6 7 8 8 9 9 9 8 8 9 9 9 10 10 10 11 11 11 11 12 12 12 12 11 11 11 9 8 7 7 6 3 4 5 9 9 9 9 8 8
6 6 6 7 8 8 8 9 9 8 8 9 9 9 9 9 9 10 10 10 11 11 11 11 11 11 11 10 10 9 8 8 8 5 4 5 5 8 9 9 9 9 8
6 6 6 7 8 8 8 9 9 9 8 8 8 8 9 9 9 9 9 10 10 11 10 10 10 10 10 10 9 9 9 9 7 4 4 5 4 7 9 9 9 9 9
6 6 6 7 8 8 9 9 8 8 9 9 9 9 9 9 9 9 9 10 10 10 10 9 9 9 9 9 8 8 9 10 5 5 5 4 5 7 8 8 8 8 8
7 6 6 8 8 8 8 8 8 8 9 9 9 9 9 9 9 9 9 9 9 9 9 9 8 8 8 8 8 8 9 9 6 5 5 5 7 7 8 8 8 8 7
6 5 4 4 6 7 8 8 8 8 8 8 8 8 9 9 9 9 9 9 8 9 9 8 8 8 8 7 7 8 8 8 5 4 5 4 7 8 8 8 8 8 8
5 5 4 4 4 4 5 7 8 8 7 7 7 8 8 8 8 8 8 8 8 8 8 8 8 8 7 7 7 7 7 7 4 5 4 5 8 7 7 7 7 7 8
4 3 3 3 3 3 3 5 5 6 6 6 5 6 5 3 3 4 6 8 8 7 7 7 7 7 6 6 7 6 6 3 4 4 3 6 7 7 6 6 7 7 7
2 2 2 3 3 3 2 3 2 3 4 3 3 3 2 2 3 4 5 6 6 6 6 7 7 6 5 2 4 5 2 3 3 3 4 8 7 6 6 6 6 6 6
3 2 2 2 2 2 2 2 2 2 2 3 3 2 2 2 2 3 2 2 3 4 3 4 3 2 3 2 2 2 3 3 2 3 5 8 7 6 6 6 6 6 6
3 2 2 2 2 2 1 1 2 2 2 2 2 2 2 1 2 2 2 2 2 1 2 2 1 2 3 3 3 3 4 3 2 2 3 7 8 7 6 5 5 5 4
2 1 1 1 2 1 1 1 2 2 2 2 1 2 3 2 1 1 1 1 1 1 2 2 2 2 2 3 3 3 3 3 3 2 2 6 7 8 8 8 7 7 6
1 1 0 1 1 1 1 1 1 2 2 2 2 2 2 2 1 1 1 1 1 1 2 2 2 2 2 2 2 3 2 2 2 2 2 3 6 7 7 8 7 7 6
1 1 1 1 1 2 1 1 1 1 2 1 1 1 1 1 2 2 1 1 1 1 1 1 2 2 2 2 2 2 2 2 2 2 2 1 2 5 6 7 6 7 6
2 1 1 1 2 2 1 1 1 1 2 1 1 1 1 1 2 1 1 1 1 1 1 1 1 2 2 2 2 2 2 1 2 1 1 1 1 2 3 5 6 6 6
2 2 1 1 1 1 2 2 2 2 2 1 1 1 1 1 1 1 1 1 1 1 1 2 2 1 2 2 2 2 2 1 1 1 1 1 1 1 1 4 6 6 7
2 2 1 1 1 1 1 1 1 1 1 1 1 1 1 1 1 1 1 1 1 1 1 1 2 2 1 1 2 2 2 2 1 0 1 1 1 2 2 2 2 4 7
2 1 1 1 1 1 1 2 2 2 1 1 1 1 1 1 1 1 1 0 0 0 0 1 1 1 1 1 1 2 2 1 1 0 1 1 1 2 2 2 2 2 3
1 1 1 1 1 1 1 2 2 2 2 2 1 1 1 1 1 1 1 0 0 0 0 0 1 1 1 1 1 1 2 2 1 1 1 1 1 1 2 2 2 2 2
2 1 1 1 1 1 2 2 1 1 1 1 1 1 1 1 1 1 1 1 0 0 0 1 0 0 1 1 1 0 0 2 3 2 1 1 1 1 1 2 2 2 2
2 2 1 1 1 0 2 3 3 3 2 2 2 2 2 2 2 1 1 1 1 1 0 1 0 1 1 1 1 0 1 1 1 3 2 1 1 2 2 2 2 2 2
2 2 1 1 0 0 1 3 3 3 2 1 1 2 2 2 2 2 1 1 1 1 1 1 1 1 1 1 1 1 2 2 2 2 4 3 3 2 2 2 2 2 2
2 2 1 1 0 0 1 2 3 3 2 2 2 2 2 1 1 2 2 2 2 1 1 1 1 1 2 2 1 1 1 1 2 2 4 4 4 3 3 2 1 2 2
Wind_Direction
83 81 54 64 66 68 70 71 71 71 71 71 69 68 68 67 66 64 60 60 60 62 66 64 63 63 60 59 60 61 59 56 57 57 60 62 62 58 56 55 54 55 59
95 93 70 68 72 73 71 72 74 74 73 72 71 70 70 70 69 66 62 60 59 60 63 63 62 61 59 57 57 58 57 51 47 44 57 63 64 60 56 52 53 56 57
98 97 87 68 76 78 72 72 76 75 74 73 73 72 70 70 69 67 64 61 59 59 60 62 61 59 57 55 53 52 49 38 24 16 44 67 63 61 57 54 55 54 54
98 95 82 70 79 82 78 74 71 73 74 73 74 75 72 69 69 68 64 61 60 61 60 61 60 59 56 53 49 43 33 17 1 358 39 57 57 56 55 54 53 49 48
94 91 84 71 78 83 82 79 74 72 74 74 74 75 74 73 71 70 66 62 62 61 58 58 58 56 54 50 45 36 21 4 356 10 40 53 49 52 52 52 53 51 49
95 90 85 78 81 78 78 81 79 74 72 74 75 75 74 72 70 69 67 64 61 60 58 57 57 55 53 48 41 30 14 358 354 23 45 44 39 51 53 52 54 53 50
95 90 90 78 80 79 75 73 77 77 71 71 74 74 73 71 69 66 67 64 62 61 59 57 57 54 52 46 37 26 10 356 17 37 48 41 38 52 53 50 48 47 44
100 98 100 80 77 75 73 71 66 73 73 70 71 72 71 68 67 64 63 62 61 60 59 58 56 53 50 44 32 22 12 10 23 40 46 41 38 48 50 46 43 41 41
106 107 106 103 89 78 72 67 64 61 68 69 68 67 65 62 62 60 55 55 58 58 56 54 52 50 49 42 28 20 14 13 20 30 39 38 40 43 42 40 37 36 37
105 105 105 98 93 91 86 73 66 58 60 67 64 63 64 63 59 58 51 48 54 56 54 50 47 45 43 38 26 17 13 10 27 35 28 32 34 38 40 36 33 34 34
100 95 96 95 94 95 95 86 74 60 51 60 62 63 64 59 62 58 49 48 47 47 48 45 41 39 40 34 24 18 11 8 33 40 28 34 30 28 35 36 31 33 33
93 86 89 91 84 86 85 89 75 64 53 49 57 60 57 50 54 61 52 46 43 40 38 35 32 30 26 20 7 11 5 9 29 43 31 34 26 22 30 36 32 29 28
110 85 74 84 87 83 83 90 79 71 59 47 53 46 53 54 55 62 59 42 37 38 29 24 28 16 16 13 11 15 11 18 32 40 33 33 26 23 28 24 21 20 24
96 87 83 85 89 86 84 95 102 90 76 62 44 36 58 61 52 54 54 41 36 19 10 13 17 9 11 12 15 15 11 19 32 38 42 36 31 26 20 13 12 11 16
90 84 104 110 107 108 101 93 102 97 88 81 61 37 42 59 60 62 59 48 38 19 8 3 12 10 12 10 15 19 15 19 28 29 39 38 34 28 25 25 21 19 20
111 137 148 125 122 114 117 126 115 110 109 102 87 56 52 53 48 56 62 42 33 24 7 355 3 14 18 15 15 13 7 5 18 31 31 33 35 28 20 14 11 10 12
146 155 145 153 138 129 130 144 132 127 118 108 111 101 77 65 59 50 59 44 17 12 5 357 16 25 24 15 9 358 354 358 3 17 20 36 25 22 17 9 4 3 3
144 135 145 175 158 152 151 143 131 129 127 119 115 115 111 76 61 61 56 40 20 14 7 4 12 19 12 0 349 339 340 345 7 9 10 13 13 11 4 3 1 357 358
148 142 163 190 151 156 160 148 143 133 127 116 104 94 129 105 70 68 62 29 25 20 17 10 10 12 5 354 335 327 323 327 322 0 348 348 355 7 357 359 356 353 352
129 143 159 180 157 156 165 154 154 144 132 121 121 115 137 134 122 96 72 20 31 39 23 20 16 9 2 336 329 329 304 285 274 268 312 348 356 358 358 351 342 341 350
111 112 167 186 177 162 171 172 174 171 170 148 137 141 144 130 145 137 100 59 59 80 19 15 20 3 356 343 345 330 302 263 244 319 332 336 345 343 350 346 350 350 343
146 159 177 226 202 175 180 178 168 156 164 157 147 144 147 132 147 150 135 159 155 104 41 13 28 1 326 3 348 330 323 322 324 294 267 256 293 331 345 340 336 333 336
172 190 210 214 224 197 171 155 140 116 114 151 150 166 181 154 149 151 164 165 182 150 204 240 205 177 287 325 24 51 284 284 317 291 261 259 298 324 311 314 315 316 325
197 188 195 182 189 167 167 168 168 170 184 195 178 181 180 166 150 138 154 173 180 171 211 257 251 239 210 275 308 295 241 231 263 303 303 294 300 294 291 299 302 296 303
169 164 181 185 204 146 147 170 180 193 194 172 155 167 169 165 159 157 178 192 205 207 209 218 224 230 206 219 237 265 276 281 250 248 283 298 303 281 273 276 272 284 291
151 147 155 168 208 128 140 170 185 192 189 175 190 190 184 176 176 178 188 207 212 213 220 224 218 231 225 223 227 222 223 236 252 247 263 286 290 283 283 272 268 279 283